Total_Precipitation_Accumulation
0.01 0.06 0.14 0.12 0.19 0.19 0.01 0.00 0.00 0.00 0.00 0.00 0.00 0.01 0.00 0.00 0.00 0.05 0.04 0.08 0.04 0.11 0.07 0.05 0.10 0.06 0.08 0.04 0.05 0.08 0.05 0.02 0.01 0.03 0.03 0.01 0.01 0.01 0.02 0.03 0.04 0.02 0.04 0.01 0.00 0.01 0.01 0.00 0.00
0.09 0.19 0.13 0.22 0.31 0.02 0.01 0.00 0.00 0.00 0.00 0.00 0.00 0.01 0.01 0.00 0.00 0.00 0.01 0.03 0.03 0.05 0.05 0.00 0.06 0.03 0.03 0.10 0.07 0.07 0.00 0.00 0.00 0.03 0.05 0.03 0.03 0.01 0.02 0.04 0.04 0.03 0.07 0.03 0.00 0.03 0.04 0.02 0.01
0.09 0.31 0.26 0.45 0.07 0.00 0.00 0.00 0.00 0.00 0.00 0.00 0.00 0.02 0.02 0.00 0.00 0.00 0.00 0.00 0.02 0.04 0.01 0.01 0.05 0.03 0.05 0.08 0.07 0.02 0.00 0.00 0.00 0.01 0.07 0.09 0.05 0.01 0.02 0.02 0.02 0.02 0.05 0.04 0.01 0.01 0.02 0.00 0.00
0.16 0.43 0.29 0.34 0.01 0.00 0.00 0.00 0.00 0.00 0.01 0.02 0.00 0.00 0.01 0.01 0.01 0.00 0.00 0.00 0.01 0.02 0.01 0.01 0.01 0.01 0.06 0.06 0.00 0.00 0.00 0.00 0.01 0.02 0.07 0.05 0.06 0.01 0.01 0.02 0.01 0.01 0.02 0.00 0.00 0.02 0.05 0.02 0.01
0.23 1.19 0.49 0.03 0.00 0.00 0.02 0.00 0.00 0.00 0.03 0.04 0.00 0.00 0.02 0.03 0.02 0.00 0.00 0.01 0.04 0.03 0.00 0.00 0.03 0.01 0.01 0.00 0.00 0.00 0.00 0.01 0.00 0.01 0.00 0.03 0.02 0.00 0.00 0.01 0.02 0.00 0.00 0.00 0.00 0.00 0.00 0.02 0.01
1.16 0.42 0.14 0.00 0.00 0.00 0.01 0.00 0.00 0.01 0.07 0.02 0.01 0.01 0.09 0.03 0.01 0.00 0.00 0.00 0.00 0.00 0.00 0.00 0.01 0.03 0.04 0.04 0.03 0.01 0.02 0.02 0.01 0.00 0.00 0.00 0.00 0.00 0.00 0.00 0.02 0.00 0.00 0.00 0.00 0.00 0.00 0.00 0.00
0.70 0.54 0.05 0.00 0.01 0.00 0.01 0.00 0.00 0.00 0.01 0.00 0.00 0.00 0.05 0.04 0.01 0.01 0.00 0.00 0.00 0.00 0.00 0.00 0.00 0.01 0.02 0.04 0.05 0.01 0.00 0.00 0.00 0.00 0.00 0.00 0.00 0.00 0.00 0.00 0.00 0.00 0.00 0.00 0.00 0.00 0.00 0.00 0.00
1.12 0.53 0.08 0.01 0.00 0.01 0.00 0.00 0.00 0.00 0.10 0.06 0.02 0.00 0.01 0.01 0.03 0.00 0.00 0.00 0.00 0.00 0.00 0.00 0.00 0.00 0.00 0.00 0.01 0.01 0.00 0.00 0.00 0.00 0.00 0.00 0.00 0.00 0.00 0.00 0.00 0.00 0.00 0.00 0.00 0.00 0.00 0.00 0.00
0.22 0.27 0.05 0.09 0.06 0.00 0.00 0.00 0.00 0.01 0.01 0.04 0.05 0.00 0.00 0.00 0.00 0.00 0.00 0.00 0.00 0.00 0.00 0.00 0.00 0.00 0.00 0.00 0.00 0.01 0.00 0.00 0.00 0.00 0.00 0.00 0.00 0.01 0.02 0.02 0.01 0.00 0.00 0.00 0.00 0.00 0.01 0.04 0.03
0.66 0.62 0.05 0.13 0.11 0.01 0.00 0.00 0.00 0.01 0.00 0.00 0.00 0.00 0.02 0.01 0.00 0.00 0.01 0.00 0.00 0.00 0.00 0.00 0.00 0.00 0.00 0.00 0.01 0.02 0.00 0.00 0.00 0.00 0.00 0.00 0.01 0.02 0.07 0.11 0.16 0.12 0.03 0.03 0.02 0.02 0.01 0.13 0.69
0.07 0.27 0.13 0.08 0.03 0.01 0.00 0.01 0.02 0.01 0.00 0.00 0.00 0.00 0.01 0.00 0.00 0.00 0.00 0.00 0.00 0.00 0.00 0.00 0.00 0.00 0.00 0.00 0.00 0.00 0.00 0.00 0.00 0.00 0.00 0.01 0.07 0.08 0.16 0.38 0.30 0.32 0.28 0.20 0.38 0.60 0.26 0.25 0.87
0.06 0.03 0.01 0.01 0.01 0.00 0.00 0.00 0.00 0.01 0.00 0.00 0.00 0.00 0.00 0.00 0.00 0.00 0.00 0.00 0.00 0.00 0.00 0.00 0.00 0.00 0.00 0.00 0.00 0.00 0.00 0.00 0.00 0.00 0.00 0.01 0.09 0.14 0.14 0.27 0.44 0.69 1.39 0.53 0.37 0.41 0.33 0.35 0.26
0.05 0.02 0.01 0.00 0.00 0.00 0.01 0.00 0.00 0.00 0.00 0.00 0.00 0.00 0.00 0.00 0.00 0.00 0.00 0.00 0.00 0.00 0.00 0.00 0.00 0.00 0.00 0.00 0.00 0.00 0.00 0.00 0.00 0.00 0.00 0.03 0.09 0.11 0.55 0.29 0.47 0.59 2.52 0.62 0.36 0.25 0.32 0.30 0.04
0.07 0.10 0.00 0.00 0.00 0.01 0.01 0.00 0.00 0.00 0.00 0.00 0.00 0.00 0.00 0.00 0.00 0.00 0.00 0.00 0.00 0.00 0.00 0.00 0.00 0.00 0.00 0.00 0.00 0.00 0.00 0.00 0.00 0.00 0.01 0.00 0.11 0.11 0.25 0.24 0.38 0.66 0.72 0.29 0.40 0.35 0.31 0.24 0.03
0.22 0.16 0.00 0.00 0.03 0.03 0.03 0.01 0.00 0.00 0.00 0.00 0.00 0.00 0.00 0.00 0.00 0.00 0.00 0.00 0.00 0.00 0.00 0.00 0.00 0.00 0.00 0.00 0.00 0.00 0.00 0.00 0.00 0.00 0.00 0.02 0.12 0.13 0.14 0.31 1.09 0.94 0.64 0.45 0.19 0.26 0.15 0.06 0.02
0.05 0.21 0.19 0.04 0.02 0.12 0.29 0.12 0.01 0.00 0.00 0.00 0.00 0.00 0.00 0.00 0.00 0.00 0.00 0.00 0.00 0.00 0.00 0.00 0.00 0.00 0.00 0.00 0.00 0.00 0.00 0.00 0.00 0.00 0.03 0.10 0.07 0.10 0.15 0.23 0.71 0.40 0.56 0.45 0.18 0.11 0.09 0.01 0.09
0.01 0.04 0.28 0.13 0.08 0.11 0.44 0.24 0.04 0.01 0.00 0.00 0.00 0.00 0.00 0.00 0.00 0.00 0.00 0.00 0.00 0.00 0.00 0.00 0.00 0.00 0.00 0.00 0.00 0.00 0.00 0.00 0.00 0.01 0.06 0.35 0.08 0.08 0.13 0.09 0.18 0.17 0.27 0.31 0.31 0.19 0.08 0.05 0.00
0.00 0.00 0.12 0.17 0.10 0.07 0.34 0.34 0.05 0.01 0.00 0.00 0.00 0.00 0.00 0.00 0.00 0.00 0.00 0.00 0.00 0.00 0.00 0.00 0.00 0.00 0.00 0.00 0.00 0.00 0.00 0.00 0.00 0.01 0.02 0.12 0.20 0.17 0.09 0.02 0.04 0.06 0.09 0.13 0.13 0.18 0.26 0.21 0.13
0.00 0.00 0.09 0.07 0.06 0.17 0.35 0.20 0.11 0.02 0.01 0.00 0.00 0.00 0.00 0.00 0.00 0.00 0.00 0.00 0.00 0.00 0.00 0.00 0.00 0.00 0.00 0.00 0.00 0.00 0.00 0.00 0.00 0.00 0.01 0.02 0.06 0.11 0.09 0.02 0.04 0.03 0.05 0.06 0.05 0.03 0.07 0.08 0.15
0.00 0.00 0.00 0.02 0.02 0.16 0.32 0.47 0.14 0.04 0.01 0.06 0.04 0.00 0.00 0.00 0.00 0.00 0.00 0.00 0.00 0.00 0.00 0.00 0.00 0.00 0.00 0.00 0.00 0.00 0.00 0.00 0.00 0.00 0.00 0.01 0.03 0.03 0.06 0.02 0.03 0.00 0.03 0.03 0.01 0.10 0.11 0.10 0.11
0.00 0.00 0.00 0.00 0.00 0.05 0.10 0.48 0.22 0.13 0.25 0.27 0.06 0.03 0.00 0.00 0.00 0.00 0.00 0.00 0.00 0.00 0.00 0.00 0.00 0.00 0.00 0.00 0.00 0.00 0.00 0.00 0.06 0.00 0.00 0.00 0.02 0.02 0.01 0.02 0.03 0.00 0.01 0.04 0.03 0.06 0.13 0.21 0.09
0.00 0.00 0.00 0.00 0.00 0.00 0.01 0.27 0.09 0.15 0.31 0.32 0.17 0.06 0.01 0.00 0.00 0.00 0.00 0.00 0.00 0.00 0.00 0.00 0.00 0.00 0.00 0.00 0.00 0.00 0.00 0.00 0.00 0.00 0.00 0.00 0.01 0.00 0.00 0.02 0.01 0.00 0.00 0.01 0.03 0.04 0.06 0.10 0.07
0.00 0.00 0.00 0.00 0.00 0.00 0.02 0.20 0.16 0.03 0.07 0.15 0.28 0.19 0.06 0.00 0.00 0.00 0.00 0.00 0.00 0.00 0.00 0.00 0.00 0.00 0.00 0.00 0.00 0.01 0.00 0.00 0.00 0.00 0.02 0.00 0.00 0.00 0.00 0.01 0.01 0.00 0.00 0.00 0.00 0.00 0.00 0.02 0.01
0.00 0.00 0.00 0.00 0.00 0.00 0.01 0.07 0.31 0.13 0.05 0.14 0.26 0.28 0.19 0.05 0.00 0.00 0.00 0.00 0.00 0.00 0.00 0.00 0.00 0.00 0.00 0.00 0.00 0.01 0.01 0.00 0.00 0.01 0.01 0.00 0.00 0.00 0.00 0.00 0.00 0.00 0.00 0.00 0.00 0.00 0.00 0.00 0.00
0.00 0.00 0.00 0.00 0.00 0.02 0.00 0.11 0.23 0.07 0.17 0.67 0.16 0.24 0.22 0.09 0.01 0.00 0.00 0.00 0.00 0.00 0.00 0.00 0.00 0.00 0.00 0.00 0.00 0.00 0.00 0.00 0.00 0.00 0.00 0.00 0.00 0.00 0.00 0.00 0.01 0.02 0.00 0.00 0.00 0.00 0.00 0.00 0.00
0.00 0.00 0.00 0.00 0.00 0.00 0.00 0.04 0.12 0.09 0.06 0.41 0.06 0.07 0.13 0.09 0.02 0.00 0.00 0.00 0.00 0.00 0.00 0.00 0.00 0.00 0.00 0.00 0.00 0.00 0.00 0.00 0.00 0.00 0.00 0.00 0.00 0.00 0.00 0.00 0.00 0.01 0.00 0.00 0.00 0.00 0.00 0.00 0.00
0.00 0.00 0.00 0.00 0.00 0.00 0.01 0.23 0.23 0.18 0.16 0.27 0.06 0.06 0.10 0.08 0.03 0.00 0.00 0.00 0.00 0.00 0.00 0.00 0.00 0.00 0.00 0.00 0.00 0.00 0.00 0.00 0.00 0.00 0.00 0.00 0.00 0.00 0.00 0.00 0.00 0.02 0.00 0.00 0.00 0.00 0.00 0.00 0.00
0.00 0.00 0.00 0.00 0.00 0.00 0.00 0.17 0.12 0.13 0.21 0.28 0.38 0.22 0.05 0.06 0.05 0.02 0.00 0.00 0.00 0.00 0.00 0.00 0.00 0.00 0.00 0.00 0.00 0.00 0.00 0.00 0.00 0.00 0.00 0.00 0.00 0.00 0.01 0.00 0.00 0.00 0.02 0.03 0.00 0.00 0.00 0.00 0.00
0.00 0.00 0.00 0.00 0.00 0.00 0.00 0.07 0.08 0.11 0.27 0.35 0.27 0.24 0.56 0.04 0.03 0.04 0.04 0.00 0.00 0.00 0.00 0.00 0.00 0.00 0.00 0.00 0.00 0.00 0.00 0.00 0.00 0.00 0.00 0.00 0.00 0.00 0.00 0.00 0.00 0.00 0.01 0.02 0.00 0.00 0.01 0.00 0.02
0.00 0.00 0.00 0.00 0.00 0.00 0.00 0.02 0.08 0.13 0.26 0.17 0.11 0.12 0.35 0.04 0.03 0.06 0.10 0.02 0.00 0.00 0.00 0.00 0.00 0.00 0.00 0.00 0.00 0.00 0.00 0.00 0.00 0.00 0.00 0.00 0.00 0.00 0.00 0.00 0.00 0.00 0.00 0.01 0.03 0.02 0.02 0.01 0.10